Weather Roundup
Issued by NWS Corpus Christi, TX

Home | Current Version | Previous Version | Text Only | Print | Product List | Glossary On
Versions: 1 2 3 4 5 6 7 8 9 10 11 12 13 14 15 16 17 18 19 20 21 22 23 24 25 26 27 28 29 30 31 32 33 34 35 36 37 38 39 40 41 42 43 44 45 46 47 48 49 50
000
ASUS44 KCRP 271110
HRRCRP

SOUTH TEXAS REGIONAL WEATHER ROUNDUP
NATIONAL WEATHER SERVICE CORPUS CHRISTI TX
500 AM CST THU NOV 27 2014


TXZ229>244-271200-
...CORPUS CHRISTI AREA OBSERVATIONS...

CITY           SKY/WX    TMP DP  RH WIND       PRES   REMARKS
CORPUS CHRISTI CLEAR     47  45  93 N5        30.34S
NAS CORPUS CHR CLEAR     52  52 100 CALM      30.34
ROCKPORT       CLEAR     52  49  89 N6        30.36R
KINGSVILLE NAS CLEAR     45  44  97 N3        30.35R
ALICE          CLEAR     42  40  92 N3        30.33S
FALFURRIAS     CLEAR     44  41  91 CALM      30.34R
$$

...VICTORIA AREA OBSERVATIONS...

CITY           SKY/WX    TMP DP  RH WIND       PRES   REMARKS
VICTORIA       CLEAR     45  40  82 N8        30.38R
BEEVILLE       FAIR      47  41  81 NE5       30.36R
PLEASANTON     CLEAR     48  35  60 N7        30.38S
SAN ANTONIO    CLEAR     48  36  63 N6        30.40S
$$

...LAREDO AREA OBSERVATIONS...

CITY           SKY/WX    TMP DP  RH WIND       PRES   REMARKS
LAREDO         CLEAR     48  37  65 NE7       30.35R
COTULLA        CLEAR     50  36  58 NE10      30.36S
DEL RIO        CLEAR     41  35  79 W5        30.37R
MCALLEN        CLEAR     48  47  96 CALM      30.33S
HEBBRONVILLE   CLEAR     45  39  80 NW7       30.33S
$$

...OTHER TEXAS OBSERVATIONS...

CITY           SKY/WX    TMP DP  RH WIND       PRES   REMARKS
BROWNSVILLE    PTCLDY    47  47 100 CALM      30.33S FOG
HOUSTON        CLEAR     44  38  79 N6        30.41R
COL. STATION   CLEAR     48  35  60 N10       30.42R
AUSTIN         CLEAR     41  36  82 N8        30.43R
WACO           CLEAR     40  33  76 N7        30.47R
FORT WORTH     CLEAR     40  28  62 N10       30.47S WCI  33
WICHITA FALLS  CLEAR     35  26  69 CALM      30.48F
LUBBOCK        PTCLDY    30  22  72 E6        30.44R
EL PASO        PTCLDY    36  18  48 N3        30.36S
$$

...MARINE OBSERVATIONS...

STATION/POSITION TIME  SKY/WX   TEMP    WIND        PRES    VSBY  WAVE   SWELL
                                AIR SEA DIR/SP/G                  HT/PER HT/PER
                 (UTC)          (F)     (DEG/KT/KT) (MB)    (MI)  (FT/S) (FT/S)
PORT ARANSAS     1100            58 62  330/  5/  5 1028.1R
BUOY 90 E PORT A 1100            70 72  310/  6/  8 1027.9R         2/ 5   2/ 5
BUOY 45 SE BAFFI 1100            69 73  210/  6/  8 1027.1R         3/ 8   2/ 8
BUOY 200 E PT IS 1100            69 74  350/  4/  6 1027.5R         2/ 6   2/ 6
BUOY 15 E GALVES 1100            60 61   30/ 16/ 17 1028.0R         2/ 5   2/ 8
$$



USA.gov is the U.S. government's official web portal to all federal, state and local government web resources and services.